Overview Statistics Trail Chart Weather Telemetry Raw packets
 

This is the latest recevied weather packets stored in our database for station/object K7PMV-13. If no packets are shown the sender has not sent any weather packets the latest 10 day(s).

<< 53 54 55 56 57 58 59 >>
Time Temp. Humidity Pressure Rain* Wind** Luminosity Snow
1777315539 24.44° C 26% 1010.9 hPa 0 mm - 939 W/m² -
1777315236 24.44° C 26% 1010.9 hPa 0 mm - 933 W/m² -
1777314934 23.89° C 28% 1010.9 hPa 0 mm - 928 W/m² -
1777314631 24.44° C 26% 1011.1 hPa 0 mm - 925 W/m² -
1777314329 23.89° C 27% 1011.1 hPa 0 mm - 923 W/m² -
1777314026 23.89° C 27% 1011.1 hPa 0 mm - 898 W/m² -
1777313723 23.89° C 28% 1011.2 hPa 0 mm - 849 W/m² -
1777313421 23.33° C 27% 1011.2 hPa 0 mm - 788 W/m² -
1777313113 23.33° C 27% 1011.3 hPa 0 mm - 729 W/m² -
1777312810 23.33° C 27% 1011.2 hPa 0 mm - 668 W/m² -
1777312508 23.33° C 29% 1011.2 hPa 0 mm - 369 W/m² -
1777312205 23.33° C 27% 1011.2 hPa 0 mm - 633 W/m² -
1777311902 22.78° C 29% 1011.2 hPa 0 mm - 729 W/m² -
1777311600 22.78° C 29% 1011.3 hPa 0 mm - 761 W/m² -
1777311290 22.78° C 29% 1011.3 hPa 0 mm - 786 W/m² -
1777310487 22.78° C 30% 1011.5 hPa 0 mm - 819 W/m² -
1777310185 22.78° C 29% 1011.5 hPa 0 mm - 812 W/m² -
1777309883 22.22° C 31% 1011.5 hPa 0 mm - 800 W/m² -
1777309580 22.22° C 30% 1011.5 hPa 0 mm - 791 W/m² -
1777309277 21.67° C 31% 1011.5 hPa 0 mm - 777 W/m² -
1777308975 21.67° C 31% 1011.5 hPa 0 mm - 765 W/m² -
1777308672 21.11° C 31% 1011.5 hPa 0 mm - 756 W/m² -
1777308362 21.67° C 30% 1011.5 hPa 0 mm - 742 W/m² -
1777308060 21.11° C 32% 1011.4 hPa 0 mm - 724 W/m² -
1777307750 21.11° C 31% 1011.4 hPa 0 mm - 700 W/m² -

* Rain latest hour (hover to see other rain measurements)
** Current wind speed in m/s (hover to see current wind gust speed)